Terminal Aerodrome Forecast
Issued by NWS

Home | Current Version | Previous Version | Text Only | Print | Product List | Glossary On
Versions: 1 2 3 4 5 6 7 8 9 10 11 12 13 14 15
000
FTUS42 TJSJ 252338
TAFJBQ
TAF
TJBQ 252338Z 2600/2624 08007KT P6SM SCT035 OVC045
     FM260100 14005KT P6SM FEW060
     FM261400 07014KT P6SM SCT025 SCT050
     FM261800 07012G22KT P6SM TSRA SCT035CB BKN050 OVC080
     FM262200 12004KT P6SM VCSH SCT035 SCT050 SCT080
      AMD NOT SKED 2602/2611=

USA.gov is the U.S. government's official web portal to all federal, state and local government web resources and services.